Location: Sungai Jaoh
(2.9167°N, 113.9167°E)
Time: 06:19:25
(UTC+00:00)

COSMOS 2455 - Pass Details

Date: 30 November 2020
Orbit: 900 x 910 km, 67.1° (Epoch: 16 January)

Event Time Altitude Azimuth Distance (km) Brightness Sun altitude
Rises 21:19:36 0° 218° (SW) 3,518 5.8 -13.5°
Reaches altitude 10° 21:22:19 10° 227° (SW) 2,577 5.0 -12.9°
Maximum altitude 21:27:39 34° 290° (WNW) 1,446 3.4 -11.7°
Drops below altitude 10° 21:32:59 10° 353° (N) 2,576 4.9 -10.4°
Sets 21:35:44 0° 3° (N) 3,517 5.7 -9.8°
